Change the Weather History Date:

Sunday, February 17, 2013

  Actual Average (KILM) Record (KILM)
Temperature  
Mean Temperature 34 °F 49 °F  
Max Temperature 40 °F 60 °F 81 °F (1976)
Min Temperature 29 °F 38 °F 14 °F (1958)
Degree Days  
Heating Degree Days 30 16  
Month to date heating degree days 290  
Since 1 July heating degree days 1765  
Cooling Degree Days 0 0  
Month to date cooling degree days 0  
Year to date cooling degree days 2  
Moisture  
Dew Point 17 °F    
Average Humidity 51    
Maximum Humidity 90    
Minimum Humidity 27    
Precipitation  
Precipitation 0.00 in 0.13 in 2.30 in (1998)
Month to date precipitation 2.16  
Year to date precipitation 5.92  
Snow  
Snow 0.00 in 0.00 in 1.00 in (1896)
Month to date snowfall 0.2  
Since 1 July snowfall 1.4  
Snow Depth -    
Sea Level Pressure  
Sea Level Pressure 30.12 in    
Wind  
Wind Speed 10 mph (WNW)    
Max Wind Speed 20 mph    
Max Gust Speed 32 mph    
Visibility 10 miles    
Events      
T = Trace of Precipitation, MM = Missing Value Source: NWS Daily Summary

Daily Weather History Graph

Daily Weather History Graph

Search for Another Location

Airport or City:

Trip Planner

Search our weather history database for the weather conditions in past years. The results will help you decide how hot, cold, wet, or windy it might be!

Date:

Astronomy

Feb. 17, 2013 Rise Set
Actual Time 6:57 AM EST 5:59 PM EST
Civil Twilight 6:31 AM EST 6:25 PM EST
Nautical Twilight 6:02 AM EST 6:54 PM EST
Astronomical Twilight 5:33 AM EST 7:24 PM EST
Moon 11:08 AM EST (2/17) 12:34 AM EST (2/17)
Length of Visible Light 11h 53m
Length of Day
11h 02m
Waxing Crescent, 49% of the Moon is Illuminated
Feb 17
Waxing Crescent
Feb 17
First Quarter
Feb 25
Full
Mar 4
Last Quarter
Mar 11
New

Hourly Weather History & Observations

Time (EST) Temp. Windchill Dew Point Humidity Pressure Visibility Wind Dir Wind Speed Gust Speed Precip Events Conditions
12:15 AM 34.7 °F 27.5 °F 32.0 °F 90% 29.94 in 10.0 mi WNW 9.2 mph - N/A   Overcast
12:35 AM 34.7 °F 27.5 °F 30.7 °F 85% 29.94 in 10.0 mi WNW 9.2 mph 18.4 mph N/A   Overcast
12:55 AM 34.7 °F 25.9 °F 27.7 °F 76% 29.94 in 10.0 mi NW 12.7 mph 17.3 mph N/A   Mostly Cloudy
1:15 AM 34.5 °F 26.7 °F 26.8 °F 73% 29.95 in 10.0 mi WNW 10.4 mph 17.3 mph N/A   Mostly Cloudy
1:35 AM 33.6 °F 26.2 °F 24.6 °F 70% 29.96 in 10.0 mi WNW 9.2 mph - N/A   Clear
1:55 AM 33.1 °F 26.1 °F 23.5 °F 68% 29.96 in 10.0 mi WNW 8.1 mph - N/A   Scattered Clouds
2:15 AM 32.4 °F 24.0 °F 24.6 °F 73% 29.97 in 10.0 mi WNW 10.4 mph - N/A   Clear
2:35 AM 32.5 °F 24.2 °F 23.4 °F 69% 29.97 in 10.0 mi NW 10.4 mph - N/A   Clear
2:55 AM 32.4 °F 23.5 °F 21.7 °F 65% 29.98 in 10.0 mi NW 11.5 mph 16.1 mph N/A   Clear
3:15 AM 32.0 °F 24.8 °F 21.6 °F 65% 29.98 in 10.0 mi WNW 8.1 mph - N/A   Clear
3:35 AM 31.6 °F 26.0 °F 21.9 °F 67% 29.99 in 10.0 mi WNW 5.8 mph - N/A   Clear
3:55 AM 31.1 °F 23.1 °F 22.1 °F 69% 29.99 in 10.0 mi WNW 9.2 mph - N/A   Clear
4:15 AM 31.6 °F 22.1 °F 20.3 °F 63% 30.00 in 10.0 mi NW 12.7 mph 17.3 mph N/A   Clear
4:35 AM 31.6 °F 23.1 °F 18.7 °F 59% 30.01 in 10.0 mi NW 10.4 mph 16.1 mph N/A   Clear
4:55 AM 31.5 °F 23.5 °F 18.3 °F 58% 30.02 in 10.0 mi WNW 9.2 mph - N/A   Clear
5:15 AM 30.6 °F 23.1 °F 19.8 °F 64% 30.03 in 10.0 mi West 8.1 mph - N/A   Clear
5:35 AM 30.2 °F 23.4 °F 20.7 °F 68% 30.04 in 10.0 mi West 6.9 mph - N/A   Clear
5:55 AM 30.2 °F 22.6 °F 20.3 °F 67% 30.04 in 10.0 mi WNW 8.1 mph - N/A   Clear
6:15 AM 30.0 °F 22.4 °F 19.4 °F 65% 30.05 in 10.0 mi WNW 8.1 mph - N/A   Clear
6:35 AM 29.8 °F 23.0 °F 19.4 °F 65% 30.06 in 10.0 mi WNW 6.9 mph - N/A   Clear
7:15 AM 29.7 °F 22.0 °F 18.9 °F 64% 30.07 in 10.0 mi WNW 8.1 mph - N/A   Clear
7:35 AM 30.0 °F 22.4 °F 18.0 °F 61% 30.08 in 10.0 mi WNW 8.1 mph - N/A   Clear
8:15 AM 31.1 °F 22.4 °F 18.0 °F 58% 30.10 in 10.0 mi WNW 10.4 mph 19.6 mph N/A   Clear
8:35 AM 31.8 °F 23.3 °F 17.2 °F 55% 30.11 in 10.0 mi WNW 10.4 mph 20.7 mph N/A   Clear
8:55 AM 32.0 °F 23.6 °F 17.2 °F 55% 30.12 in 10.0 mi NW 10.4 mph 16.1 mph N/A   Clear
9:15 AM 32.9 °F 24.1 °F 18.0 °F 54% 30.12 in 10.0 mi WNW 11.5 mph 16.1 mph N/A   Clear
9:35 AM 33.3 °F 22.1 °F 15.4 °F 48% 30.12 in 10.0 mi WNW 18.4 mph 25.3 mph N/A   Clear
9:55 AM 33.8 °F 23.5 °F 12.9 °F 42% 30.13 in 10.0 mi WNW 16.1 mph 26.5 mph N/A   Clear
10:15 AM 34.7 °F 23.7 °F 11.7 °F 39% 30.13 in 10.0 mi NW 19.6 mph 26.5 mph N/A   Clear
10:35 AM 34.7 °F 23.7 °F 12.7 °F 40% 30.14 in 10.0 mi WNW 19.6 mph 26.5 mph N/A   Scattered Clouds
10:55 AM 34.9 °F 24.6 °F 11.5 °F 38% 30.14 in 10.0 mi WNW 17.3 mph 21.9 mph N/A   Scattered Clouds
11:15 AM 35.4 °F 25.3 °F 10.9 °F 36% 30.15 in 10.0 mi West 17.3 mph 23.0 mph N/A   Scattered Clouds
11:35 AM 34.7 °F 25.9 °F 9.3 °F 35% 30.15 in 10.0 mi NW 12.7 mph - N/A   Mostly Cloudy
11:55 AM 36.5 °F 27.0 °F 8.2 °F 31% 30.15 in 10.0 mi West 16.1 mph 23.0 mph N/A   Scattered Clouds
12:15 PM 36.3 °F 28.4 °F 6.3 °F 29% 30.15 in 10.0 mi WNW 11.5 mph 32.2 mph N/A   Scattered Clouds
12:35 PM 37.6 °F 28.4 °F 7.5 °F 29% 30.15 in 10.0 mi WNW 16.1 mph 23.0 mph N/A   Clear
12:55 PM 37.6 °F 27.7 °F 7.7 °F 29% 30.15 in 10.0 mi NW 18.4 mph 26.5 mph N/A   Clear
1:15 PM 38.3 °F 29.7 °F 7.9 °F 28% 30.14 in 10.0 mi WNW 15.0 mph 21.9 mph N/A   Clear
1:55 PM 38.7 °F 29.8 °F 9.0 °F 29% 30.13 in 10.0 mi WNW 16.1 mph 23.0 mph N/A   Scattered Clouds
2:15 PM 39.4 °F 30.4 °F 9.9 °F 30% 30.13 in 10.0 mi NW 17.3 mph 20.7 mph N/A   Scattered Clouds
2:35 PM 39.7 °F 31.2 °F 10.0 °F 30% 30.14 in 10.0 mi West 16.1 mph 24.2 mph N/A   Clear
2:55 PM 39.7 °F 30.9 °F 10.0 °F 30% 30.14 in 10.0 mi WNW 17.3 mph 24.2 mph N/A   Scattered Clouds
3:15 PM 39.4 °F 30.4 °F 9.3 °F 29% 30.14 in 10.0 mi WNW 17.3 mph 23.0 mph N/A   Scattered Clouds
3:35 PM 40.1 °F 31.3 °F 10.2 °F 29% 30.14 in 10.0 mi WNW 17.3 mph 23.0 mph N/A   Clear
3:55 PM 40.6 °F 33.8 °F 10.9 °F 30% 30.14 in 10.0 mi WNW 11.5 mph 21.9 mph N/A   Clear
4:15 PM 40.3 °F 33.4 °F 10.4 °F 29% 30.14 in 10.0 mi WNW 11.5 mph 18.4 mph N/A   Clear
4:35 PM 40.6 °F 33.0 °F 10.6 °F 29% 30.14 in 10.0 mi WNW 13.8 mph 19.6 mph N/A   Clear
4:55 PM 40.6 °F 33.8 °F 10.2 °F 29% 30.15 in 10.0 mi WNW 11.5 mph 17.3 mph N/A   Clear
5:15 PM 40.6 °F 34.3 °F 9.1 °F 27% 30.15 in 10.0 mi WNW 10.4 mph 18.4 mph N/A   Clear
5:35 PM 40.3 °F 34.9 °F 9.5 °F 28% 30.16 in 10.0 mi West 8.1 mph 18.4 mph N/A   Clear
5:55 PM 39.9 °F 35.1 °F 11.3 °F 31% 30.17 in 10.0 mi West 6.9 mph - N/A   Clear
6:15 PM 38.5 °F 34.1 °F 11.8 °F 34% 30.18 in 10.0 mi West 5.8 mph - N/A   Clear
6:35 PM 36.9 °F 33.1 °F 12.9 °F 37% 30.19 in 10.0 mi West 4.6 mph - N/A   Clear
6:55 PM 36.5 °F 32.7 °F 13.8 °F 39% 30.20 in 10.0 mi WSW 4.6 mph - N/A   Clear
7:15 PM 35.2 °F 32.4 °F 14.4 °F 42% 30.20 in 10.0 mi WSW 3.5 mph - N/A   Clear
7:55 PM 34.2 °F 30.0 °F 17.4 °F 50% 30.22 in 10.0 mi WSW 4.6 mph - N/A   Clear
8:15 PM 33.6 °F 30.6 °F 17.8 °F 52% 30.22 in 10.0 mi WSW 3.5 mph - N/A   Clear
8:35 PM 33.1 °F 28.7 °F 18.5 °F 55% 30.23 in 10.0 mi SW 4.6 mph - N/A   Clear
8:55 PM 32.9 °F 29.8 °F 19.0 °F 57% 30.24 in 10.0 mi SW 3.5 mph - N/A   Clear
9:15 PM 32.0 °F 28.7 °F 19.6 °F 60% 30.25 in 10.0 mi SW 3.5 mph - N/A   Clear
9:35 PM 30.9 °F 27.5 °F 19.9 °F 64% 30.26 in 10.0 mi SSW 3.5 mph - N/A   Clear
9:55 PM 30.2 °F 25.4 °F 20.3 °F 67% 30.27 in 10.0 mi SW 4.6 mph - N/A   Clear
10:15 PM 30.7 °F - 20.7 °F 66% 30.27 in 10.0 mi Calm Calm - N/A   Clear
10:35 PM 29.1 °F 25.4 °F 20.3 °F 70% 30.28 in 10.0 mi SW 3.5 mph - N/A   Clear
10:55 PM 29.5 °F 25.9 °F 20.8 °F 70% 30.28 in 10.0 mi SSW 3.5 mph - N/A   Clear
11:15 PM 29.5 °F 25.9 °F 20.7 °F 70% 30.28 in 10.0 mi SSW 3.5 mph - N/A   Clear
11:35 PM 29.1 °F 25.4 °F 20.8 °F 71% 30.29 in 10.0 mi SSW 3.5 mph - N/A   Clear